When you browse on this site, cookies collect data to enhance your experience and personalize the content and advertising you see.
Visit our Privacy Policy to learn more. By continuing to use the site, you agree to this use of cookies and data.
  • In Czech Republic
  • List of Countries
  • For 7 days
  • Water Temperature
  • Weather Map
  • Weather Widgets
  • user-avatar
    Login

    Hourly Weather Vasteras

    Today, 13 December, Friday

    Time Temperature Precipitation Wind Pressure Humidity
    00:00 +3°C° 0.1 mm 2 mps 743 mmHg 93%
    01:00 +3°C° 0.1 mm 2 mps 743 mmHg 91%
    02:00 +2°C° 0 mm 2 mps 743 mmHg 91%
    03:00 +2°C° 0 mm 2 mps 743 mmHg 91%
    04:00 +1°C° 0 mm 2 mps 743 mmHg 91%
    05:00 +1°C° 0 mm 2 mps 743 mmHg 93%
    06:00 +1°C° 0 mm 2 mps 743 mmHg 94%
    07:00 +1°C° 0 mm 2 mps 743 mmHg 95%
    08:00 +1°C° 0 mm 2 mps 743 mmHg 95%
    09:00 +2°C° 0 mm 1 mps 743 mmHg 95%
    10:00 +2°C° 0 mm 1 mps 743 mmHg 95%
    11:00 +1°C° 0 mm 2 mps 743 mmHg 95%
    12:00 +2°C° 0 mm 2 mps 743 mmHg 94%
    13:00 +3°C° 0 mm 2 mps 743 mmHg 94%
    14:00 +2°C° 0.1 mm 2 mps 743 mmHg 95%
    15:00 +1°C° 0.1 mm 3 mps 743 mmHg 96%
    16:00 +1°C° 0.1 mm 3 mps 743 mmHg 97%
    17:00 +1°C° 0.2 mm 3 mps 742 mmHg 97%
    18:00 +1°C° 0.2 mm 3 mps 742 mmHg 97%
    19:00 +2°C° 0.2 mm 3 mps 742 mmHg 96%
    20:00 +2°C° 0.1 mm 3 mps 742 mmHg 96%
    21:00 +2°C° 0.1 mm 3 mps 742 mmHg 95%
    22:00 +1°C° 0.1 mm 4 mps 741 mmHg 95%
    23:00 +1°C° 0.3 mm 4 mps 741 mmHg 95%

    Tomorrow, 14 December, Saturday

    Time Temperature Precipitation Wind Pressure Humidity
    00:00 +1°C° 0.3 mm 4 mps 741 mmHg 96%
    01:00 +1°C° 0.3 mm 4 mps 741 mmHg 96%
    02:00 +3°C° 0.5 mm 4 mps 740 mmHg 95%
    03:00 +3°C° 0.5 mm 4 mps 739 mmHg 95%
    04:00 +3°C° 0.5 mm 4 mps 739 mmHg 94%
    05:00 +3°C° 0.3 mm 4 mps 739 mmHg 94%
    06:00 +3°C° 0.3 mm 4 mps 738 mmHg 94%
    07:00 +3°C° 0.3 mm 4 mps 738 mmHg 93%
    08:00 +3°C° 0.4 mm 3 mps 738 mmHg 93%
    09:00 +3°C° 0.4 mm 3 mps 738 mmHg 93%
    10:00 +3°C° 0.4 mm 3 mps 738 mmHg 93%
    11:00 +2°C° 0.1 mm 3 mps 738 mmHg 93%
    12:00 +2°C° 0.1 mm 3 mps 738 mmHg 93%
    13:00 +2°C° 0.1 mm 3 mps 738 mmHg 93%
    14:00 +2°C° 0.1 mm 3 mps 738 mmHg 93%
    15:00 +2°C° 0.1 mm 3 mps 737 mmHg 93%
    16:00 +2°C° 0.1 mm 3 mps 737 mmHg 94%
    17:00 +2°C° 0.1 mm 3 mps 737 mmHg 93%
    18:00 +2°C° 0.1 mm 3 mps 737 mmHg 92%
    19:00 +1°C° 0.1 mm 4 mps 737 mmHg 91%
    20:00 +1°C° 0.2 mm 4 mps 737 mmHg 91%
    21:00 +1°C° 0.2 mm 4 mps 736 mmHg 92%
    22:00 +3°C° 0.2 mm 4 mps 736 mmHg 92%
    23:00 +3°C° 0 mm 4 mps 736 mmHg 92%

    Day after tomorrow, 15 December, Sunday

    Time Temperature Precipitation Wind Pressure Humidity
    00:00 +3°C° 0 mm 3 mps 736 mmHg 92%
    01:00 +3°C° 0 mm 3 mps 736 mmHg 92%
    02:00 +2°C° 0.3 mm 3 mps 736 mmHg 93%
    03:00 +2°C° 0.3 mm 3 mps 736 mmHg 95%
    04:00 +2°C° 0.3 mm 3 mps 736 mmHg 96%
    05:00 +2°C° 0.2 mm 3 mps 736 mmHg 94%
    06:00 +2°C° 0.2 mm 3 mps 737 mmHg 92%
    07:00 +2°C° 0.2 mm 3 mps 737 mmHg 90%
    08:00 +2°C° 0 mm 3 mps 737 mmHg 88%
    09:00 +2°C° 0 mm 3 mps 738 mmHg 86%
    10:00 +2°C° 0 mm 3 mps 739 mmHg 83%
    11:00 +2°C° 0 mm 3 mps 739 mmHg 83%
    12:00 +2°C° 0 mm 3 mps 739 mmHg 84%
    13:00 +2°C° 0 mm 3 mps 740 mmHg 84%
    14:00 +1°C° 0 mm 3 mps 740 mmHg 86%
    15:00 +2°C° 0 mm 2 mps 740 mmHg 88%
    16:00 +1°C° 0 mm 2 mps 739 mmHg 90%
    17:00 +1°C° 0 mm 2 mps 739 mmHg 90%
    18:00 +1°C° 0 mm 2 mps 739 mmHg 90%
    19:00 +1°C° 0 mm 2 mps 739 mmHg 90%
    20:00 +1°C° 0.1 mm 2 mps 739 mmHg 91%
    21:00 +1°C° 0.1 mm 2 mps 740 mmHg 91%
    22:00 +1°C° 0.1 mm 2 mps 741 mmHg 92%
    23:00 +1°C° 0 mm 2 mps 742 mmHg 91%

    16 December, Monday

    Time Temperature Precipitation Wind Pressure Humidity
    00:00 0°C° 0 mm 3 mps 743 mmHg 90%
    01:00 0°C° 0 mm 3 mps 744 mmHg 89%
    02:00 0°C° 0 mm 3 mps 744 mmHg 89%
    03:00 0°C° 0 mm 3 mps 745 mmHg 90%
    04:00 0°C° 0 mm 3 mps 746 mmHg 91%
    05:00 0°C° 0 mm 3 mps 746 mmHg 90%
    06:00 0°C° 0 mm 3 mps 746 mmHg 90%
    07:00 0°C° 0 mm 3 mps 746 mmHg 89%
    08:00 0°C° 0.2 mm 4 mps 746 mmHg 91%
    09:00 0°C° 0.2 mm 4 mps 746 mmHg 92%
    10:00 +1°C° 0.2 mm 5 mps 746 mmHg 94%
    11:00 +1°C° 0.9 mm 5 mps 746 mmHg 94%
    12:00 +1°C° 0.9 mm 6 mps 746 mmHg 94%
    13:00 +1°C° 0.9 mm 6 mps 746 mmHg 94%
    14:00 +1°C° 0.2 mm 5 mps 746 mmHg 91%
    15:00 +1°C° 0.2 mm 5 mps 746 mmHg 88%
    16:00 +3°C° 0.2 mm 4 mps 747 mmHg 85%
    17:00 +1°C° 0 mm 4 mps 747 mmHg 86%
    18:00 +1°C° 0 mm 4 mps 748 mmHg 88%
    19:00 +1°C° 0 mm 3 mps 748 mmHg 89%
    20:00 +1°C° 0 mm 3 mps 749 mmHg 89%
    21:00 +2°C° 0 mm 3 mps 749 mmHg 89%
    22:00 +2°C° 0 mm 3 mps 750 mmHg 90%
    23:00 +1°C° 0 mm 3 mps 750 mmHg 90%

    17 December, Tuesday

    Time Temperature Precipitation Wind Pressure Humidity
    00:00 +1°C° 0 mm 3 mps 750 mmHg 91%
    01:00 +1°C° 0 mm 3 mps 750 mmHg 91%
    02:00 +1°C° 0 mm 3 mps 750 mmHg 91%
    03:00 +2°C° 0 mm 3 mps 750 mmHg 90%
    04:00 +2°C° 0 mm 3 mps 750 mmHg 89%
    05:00 +1°C° 0 mm 4 mps 750 mmHg 88%
    06:00 +3°C° 0 mm 4 mps 750 mmHg 87%
    07:00 +3°C° 0 mm 4 mps 750 mmHg 86%
    08:00 +3°C° 0 mm 4 mps 750 mmHg 85%
    09:00 +3°C° 0 mm 4 mps 750 mmHg 85%
    10:00 +3°C° 0 mm 4 mps 750 mmHg 85%
    11:00 +3°C° 0 mm 4 mps 750 mmHg 86%
    12:00 +3°C° 0 mm 4 mps 749 mmHg 86%
    13:00 +4°C° 0 mm 4 mps 749 mmHg 86%
    14:00 +3°C° 0 mm 4 mps 749 mmHg 87%
    15:00 +3°C° 0 mm 3 mps 749 mmHg 88%
    16:00 +3°C° 0 mm 3 mps 749 mmHg 89%
    17:00 +3°C° 0 mm 3 mps 749 mmHg 90%
    18:00 +3°C° 0 mm 3 mps 749 mmHg 90%
    19:00 +4°C° 0 mm 2 mps 749 mmHg 91%
    20:00 +3°C° 0 mm 2 mps 750 mmHg 92%
    21:00 +3°C° 0 mm 2 mps 750 mmHg 93%
    22:00 +3°C° 0 mm 2 mps 750 mmHg 94%
    23:00 +3°C° 0 mm 2 mps 750 mmHg 95%

    18 December, Wednesday

    Time Temperature Precipitation Wind Pressure Humidity
    00:00 +2°C° 0 mm 2 mps 750 mmHg 95%
    01:00 +3°C° 0 mm 1 mps 749 mmHg 96%
    02:00 +3°C° 0 mm 1 mps 749 mmHg 95%
    03:00 +3°C° 0 mm 1 mps 749 mmHg 95%
    04:00 +1°C° 0 mm 2 mps 750 mmHg 95%
    05:00 +1°C° 0 mm 2 mps 750 mmHg 93%
    06:00 -1°C° 0 mm 2 mps 750 mmHg 91%
    07:00 -1°C° 0 mm 2 mps 751 mmHg 88%
    08:00 -1°C° 0 mm 2 mps 751 mmHg 86%
    09:00 -1°C° 0 mm 2 mps 752 mmHg 84%
    10:00 -1°C° 0 mm 2 mps 753 mmHg 82%
    11:00 -1°C° 0 mm 3 mps 753 mmHg 79%
    12:00 -1°C° 0 mm 3 mps 754 mmHg 76%
    13:00 0°C° 0 mm 3 mps 754 mmHg 73%
    14:00 -1°C° 0 mm 3 mps 755 mmHg 74%
    15:00 -2°C° 0 mm 4 mps 756 mmHg 75%
    16:00 -2°C° 0 mm 4 mps 756 mmHg 76%
    17:00 -3°C° 0 mm 4 mps 757 mmHg 76%
    18:00 -3°C° 0 mm 4 mps 757 mmHg 76%
    19:00 -2°C° 0 mm 3 mps 758 mmHg 76%
    20:00 -2°C° 0 mm 3 mps 758 mmHg 75%
    21:00 -2°C° 0 mm 3 mps 759 mmHg 74%
    22:00 -2°C° 0 mm 3 mps 760 mmHg 73%
    23:00 -2°C° 0 mm 3 mps 760 mmHg 73%
    Show more